RUK45VZ EGPH-EGSS

Flight info

Callsign RUK45VZ
Flight time 0h 57m
Altitude 31000
Route GOSAM P600 FENIK L612 ELBUS UL612 LISTO
Aircraft B738/M-SDE2E3FGHIRWXY/LB1

Departure

Time 2026-04-21 16:26
Airport Edinburgh Airport (EGPH)

Arrival

Time 2026-04-21 17:23
Airport London Stansted Airport (EGSS)
Time Latitude Longitude Altitude Speed Heading
2026-04-21 15:52 55.94995 -3.36233 113 ft 0 kts 116°
2026-04-21 16:01 55.94995 -3.36234 115 ft 0 kts 116°
2026-04-21 16:15 55.94995 -3.36235 115 ft 0 kts 116°
2026-04-21 16:15 55.95000 -3.36254 112 ft 2 kts 116°
2026-04-21 16:15 55.95007 -3.36279 113 ft 2 kts 112°
2026-04-21 16:15 55.95012 -3.36306 111 ft 2 kts 105°
2026-04-21 16:16 55.95017 -3.36333 112 ft 2 kts 97°
2026-04-21 16:16 55.95018 -3.36361 113 ft 2 kts 81°
2026-04-21 16:16 55.95016 -3.36388 112 ft 2 kts 69°
2026-04-21 16:16 55.95013 -3.36401 112 ft 0 kts 59°
2026-04-21 16:20 55.95032 -3.36382 113 ft 7 kts 11°
2026-04-21 16:20 55.95071 -3.36425 115 ft 7 kts 290°
2026-04-21 16:20 55.95049 -3.36536 113 ft 13 kts 239°
2026-04-21 16:20 55.94991 -3.36703 112 ft 17 kts 239°
2026-04-21 16:21 55.94932 -3.36879 112 ft 16 kts 239°
2026-04-21 16:21 55.94874 -3.37049 115 ft 16 kts 238°
2026-04-21 16:21 55.94819 -3.37212 115 ft 15 kts 240°
2026-04-21 16:21 55.94766 -3.37368 113 ft 14 kts 238°
2026-04-21 16:22 55.94714 -3.37521 114 ft 15 kts 239°
2026-04-21 16:22 55.94658 -3.37687 113 ft 16 kts 239°
2026-04-21 16:22 55.94598 -3.37862 113 ft 16 kts 239°
2026-04-21 16:22 55.94535 -3.38050 115 ft 19 kts 239°
2026-04-21 16:23 55.94466 -3.38253 114 ft 19 kts 239°
2026-04-21 16:23 55.94398 -3.38452 112 ft 18 kts 239°
2026-04-21 16:23 55.94333 -3.38645 115 ft 18 kts 238°
2026-04-21 16:23 55.94282 -3.38829 115 ft 14 kts 274°
2026-04-21 16:24 55.94327 -3.38910 115 ft 0 kts 329°
2026-04-21 16:25 55.94335 -3.38919 115 ft 8 kts 329°
2026-04-21 16:25 55.94416 -3.38953 111 ft 14 kts 31°
2026-04-21 16:25 55.94441 -3.38895 113 ft 0 kts 58°
2026-04-21 16:26 55.94461 -3.38840 113 ft 27 kts 59°
2026-04-21 16:26 55.94709 -3.38106 113 ft 108 kts 58°
2026-04-21 16:26 55.95200 -3.36630 312 ft 156 kts 61°
2026-04-21 16:26 55.95744 -3.34906 1334 ft 161 kts 61°
2026-04-21 16:27 55.96515 -3.33387 2205 ft 176 kts 45°
2026-04-21 16:27 55.97476 -3.31855 2773 ft 194 kts 45°
2026-04-21 16:27 55.98547 -3.30129 3093 ft 222 kts 45°
2026-04-21 16:27 55.99862 -3.28399 3516 ft 249 kts 24°
2026-04-21 16:28 56.01616 -3.28240 4434 ft 263 kts 347°
2026-04-21 16:28 56.03079 -3.29796 5343 ft 273 kts 315°
2026-04-21 16:28 56.04021 -3.32794 5807 ft 282 kts 283°
2026-04-21 16:28 56.03913 -3.36210 6182 ft 276 kts 247°
2026-04-21 16:29 56.03032 -3.39288 6537 ft 281 kts 241°
2026-04-21 16:29 56.02231 -3.42527 6784 ft 288 kts 248°
2026-04-21 16:29 56.01577 -3.45915 7741 ft 286 kts 251°
2026-04-21 16:29 56.01012 -3.49324 8752 ft 288 kts 253°
2026-04-21 16:30 56.00495 -3.52765 9586 ft 294 kts 253°
2026-04-21 16:30 55.99972 -3.56383 10460 ft 299 kts 254°
2026-04-21 16:30 55.99454 -3.60013 11207 ft 309 kts 254°
2026-04-21 16:30 55.98905 -3.63842 11448 ft 335 kts 254°
2026-04-21 16:31 55.98301 -3.68044 11896 ft 352 kts 254°
2026-04-21 16:31 55.97691 -3.72300 12691 ft 356 kts 254°
2026-04-21 16:31 55.97073 -3.76600 13571 ft 358 kts 254°
2026-04-21 16:31 55.96452 -3.80908 14501 ft 359 kts 254°
2026-04-21 16:32 55.95826 -3.85241 15232 ft 363 kts 254°
2026-04-21 16:32 55.95198 -3.89569 15980 ft 367 kts 254°
2026-04-21 16:32 55.94553 -3.93995 16684 ft 371 kts 254°
2026-04-21 16:32 55.93795 -3.98417 17358 ft 375 kts 242°
2026-04-21 16:33 55.92217 -4.02042 18138 ft 370 kts 217°
2026-04-21 16:33 55.90085 -4.04591 18883 ft 371 kts 208°
2026-04-21 16:33 55.87973 -4.06889 19472 ft 375 kts 210°
2026-04-21 16:33 55.85807 -4.09537 20102 ft 380 kts 214°
2026-04-21 16:34 55.83730 -4.12456 20804 ft 382 kts 217°
2026-04-21 16:34 55.81709 -4.15546 21465 ft 385 kts 219°
2026-04-21 16:34 55.79690 -4.18718 22079 ft 388 kts 219°
2026-04-21 16:34 55.77637 -4.21838 22714 ft 389 kts 215°
2026-04-21 16:35 55.75428 -4.24636 23376 ft 390 kts 210°
2026-04-21 16:35 55.72948 -4.26488 23925 ft 388 kts 188°
2026-04-21 16:35 55.70269 -4.26675 24432 ft 388 kts 172°
2026-04-21 16:35 55.67650 -4.25490 24817 ft 391 kts 154°
2026-04-21 16:36 55.65247 -4.23256 25330 ft 391 kts 150°
2026-04-21 16:36 55.62860 -4.20854 25649 ft 398 kts 149°
2026-04-21 16:36 55.60443 -4.18402 26108 ft 401 kts 150°
2026-04-21 16:36 55.58009 -4.15960 26511 ft 405 kts 150°
2026-04-21 16:37 55.55539 -4.13518 26961 ft 408 kts 150°
2026-04-21 16:37 55.53062 -4.11095 27546 ft 407 kts 151°
2026-04-21 16:37 55.50577 -4.08676 28045 ft 408 kts 151°
2026-04-21 16:37 55.48086 -4.06255 28504 ft 410 kts 151°
2026-04-21 16:38 55.45579 -4.03824 29018 ft 411 kts 152°
2026-04-21 16:38 55.43069 -4.01390 29524 ft 412 kts 152°
2026-04-21 16:38 55.40561 -3.98962 30014 ft 413 kts 152°
2026-04-21 16:38 55.38038 -3.96522 30501 ft 414 kts 152°
2026-04-21 16:39 55.35518 -3.94088 30922 ft 414 kts 152°
2026-04-21 16:39 55.32993 -3.91651 31349 ft 414 kts 152°
2026-04-21 16:39 55.30465 -3.89216 31457 ft 418 kts 152°
2026-04-21 16:40 55.25291 -3.84242 31481 ft 426 kts 152°
2026-04-21 16:40 55.20137 -3.79305 31463 ft 420 kts 152°
2026-04-21 16:41 55.15901 -3.75261 31468 ft 416 kts 152°
2026-04-21 16:41 55.09961 -3.69603 31462 ft 415 kts 152°
2026-04-21 16:42 55.04919 -3.64813 31465 ft 416 kts 152°
2026-04-21 16:42 54.99822 -3.59985 31457 ft 417 kts 152°
2026-04-21 16:43 54.94717 -3.55168 31453 ft 418 kts 153°
2026-04-21 16:43 54.89592 -3.50346 31446 ft 419 kts 153°
2026-04-21 16:44 54.84460 -3.45529 31450 ft 420 kts 153°
2026-04-21 16:44 54.79315 -3.40712 31442 ft 421 kts 153°
2026-04-21 16:45 54.74154 -3.35894 31442 ft 421 kts 153°
2026-04-21 16:45 54.68898 -3.31420 31437 ft 421 kts 158°
2026-04-21 16:46 54.63512 -3.27441 31436 ft 421 kts 159°
2026-04-21 16:46 54.58121 -3.23483 31431 ft 422 kts 158°
2026-04-21 16:47 54.52727 -3.19478 31420 ft 422 kts 158°
2026-04-21 16:47 54.47341 -3.15467 31417 ft 422 kts 158°
2026-04-21 16:48 54.41995 -3.11494 31427 ft 421 kts 158°
2026-04-21 16:48 54.36605 -3.07499 31416 ft 422 kts 158°
2026-04-21 16:49 54.31206 -3.03511 31411 ft 423 kts 158°
2026-04-21 16:49 54.25787 -2.99519 31409 ft 424 kts 158°
2026-04-21 16:50 54.20318 -2.95507 31423 ft 436 kts 159°
2026-04-21 16:50 54.14634 -2.91351 31419 ft 452 kts 159°
2026-04-21 16:51 54.08753 -2.87058 31411 ft 467 kts 159°
2026-04-21 16:51 54.02752 -2.82687 31384 ft 470 kts 159°
2026-04-21 16:52 53.96731 -2.78318 31386 ft 471 kts 159°
2026-04-21 16:52 53.91731 -2.74700 31378 ft 470 kts 159°
2026-04-21 16:53 53.84699 -2.69632 31375 ft 468 kts 159°
2026-04-21 16:53 53.78722 -2.65337 31376 ft 466 kts 159°
2026-04-21 16:54 53.72758 -2.61067 31377 ft 465 kts 159°
2026-04-21 16:54 53.66813 -2.56822 31379 ft 464 kts 159°
2026-04-21 16:55 53.60899 -2.52612 31381 ft 464 kts 159°
2026-04-21 16:55 53.54942 -2.48386 31373 ft 465 kts 159°
2026-04-21 16:56 53.48982 -2.44167 31385 ft 466 kts 159°
2026-04-21 16:56 53.42999 -2.39949 31375 ft 467 kts 160°
2026-04-21 16:57 53.36993 -2.35727 31381 ft 468 kts 160°
2026-04-21 16:57 53.30977 -2.31508 31372 ft 470 kts 160°
2026-04-21 16:58 53.24945 -2.27291 31381 ft 470 kts 160°
2026-04-21 16:58 53.18904 -2.23082 31369 ft 470 kts 160°
2026-04-21 16:59 53.12939 -2.18542 31347 ft 475 kts 149°
2026-04-21 16:59 53.07572 -2.12077 31363 ft 477 kts 144°
2026-04-21 17:00 53.02297 -2.05352 31368 ft 478 kts 145°
2026-04-21 17:00 52.97861 -1.99860 31345 ft 478 kts 146°
2026-04-21 17:01 52.92479 -1.93342 31352 ft 479 kts 146°
2026-04-21 17:01 52.87058 -1.86823 30800 ft 484 kts 146°
2026-04-21 17:01 52.84330 -1.83545 30223 ft 484 kts 146°
2026-04-21 17:02 52.81614 -1.80282 29619 ft 482 kts 146°
2026-04-21 17:02 52.78897 -1.77021 29001 ft 483 kts 146°
2026-04-21 17:02 52.76184 -1.73774 28321 ft 483 kts 146°
2026-04-21 17:02 52.73427 -1.70628 27750 ft 480 kts 151°
2026-04-21 17:03 52.70536 -1.67910 27262 ft 476 kts 155°
2026-04-21 17:03 52.67577 -1.65435 26766 ft 480 kts 157°
2026-04-21 17:03 52.64558 -1.63002 26243 ft 484 kts 157°
2026-04-21 17:03 52.61543 -1.60555 25737 ft 481 kts 156°
2026-04-21 17:04 52.58575 -1.58097 25247 ft 476 kts 156°
2026-04-21 17:04 52.55643 -1.55625 24762 ft 472 kts 155°
2026-04-21 17:04 52.52739 -1.53151 24279 ft 468 kts 155°
2026-04-21 17:04 52.49864 -1.50693 23895 ft 465 kts 155°
2026-04-21 17:05 52.47007 -1.48252 23311 ft 462 kts 155°
2026-04-21 17:05 52.44176 -1.45837 22780 ft 455 kts 155°
2026-04-21 17:05 52.41395 -1.43471 22031 ft 446 kts 153°
2026-04-21 17:05 52.38677 -1.41163 21916 ft 437 kts 155°
2026-04-21 17:06 52.36054 -1.38940 21756 ft 423 kts 155°
2026-04-21 17:06 52.33488 -1.36767 21653 ft 408 kts 155°
2026-04-21 17:06 52.31004 -1.34667 21562 ft 395 kts 155°
2026-04-21 17:06 52.28593 -1.32613 21292 ft 388 kts 154°
2026-04-21 17:07 52.26245 -1.30453 20876 ft 386 kts 152°
2026-04-21 17:07 52.23933 -1.28245 20451 ft 385 kts 151°
2026-04-21 17:07 52.21631 -1.26031 20077 ft 381 kts 151°
2026-04-21 17:07 52.19353 -1.23854 19708 ft 378 kts 151°
2026-04-21 17:08 52.17109 -1.21724 19223 ft 369 kts 151°
2026-04-21 17:08 52.14899 -1.19639 18612 ft 366 kts 150°
2026-04-21 17:08 52.12680 -1.17555 18014 ft 368 kts 150°
2026-04-21 17:08 52.10478 -1.15490 17675 ft 363 kts 151°
2026-04-21 17:09 52.06151 -1.11442 16902 ft 356 kts 151°
2026-04-21 17:09 52.04013 -1.09446 16496 ft 354 kts 151°
2026-04-21 17:09 52.01941 -1.07344 15942 ft 354 kts 141°
2026-04-21 17:10 52.00389 -1.04212 15327 ft 358 kts 116°
2026-04-21 17:10 51.99641 -1.00415 15072 ft 348 kts 95°
2026-04-21 17:10 51.99505 -0.96532 14534 ft 345 kts 89°
2026-04-21 17:10 51.99519 -0.92664 14146 ft 343 kts 87°
2026-04-21 17:11 51.99563 -0.88802 13736 ft 340 kts 87°
2026-04-21 17:11 51.99600 -0.84984 13349 ft 337 kts 87°
2026-04-21 17:11 51.99623 -0.81200 12995 ft 334 kts 88°
2026-04-21 17:11 51.99635 -0.77444 12669 ft 330 kts 88°
2026-04-21 17:12 51.99640 -0.73735 12297 ft 327 kts 88°
2026-04-21 17:12 51.99640 -0.70070 11952 ft 324 kts 88°
2026-04-21 17:12 51.99636 -0.66421 11599 ft 321 kts 88°
2026-04-21 17:12 51.99630 -0.62815 11265 ft 318 kts 88°
2026-04-21 17:13 51.99623 -0.59247 10933 ft 315 kts 88°
2026-04-21 17:13 51.99615 -0.55708 10629 ft 311 kts 88°
2026-04-21 17:13 51.99606 -0.52270 10540 ft 297 kts 88°
2026-04-21 17:13 51.99595 -0.49006 10149 ft 289 kts 88°
2026-04-21 17:14 51.99585 -0.45753 9684 ft 284 kts 88°
2026-04-21 17:14 51.99573 -0.42574 9305 ft 284 kts 89°
2026-04-21 17:14 51.99219 -0.39438 8991 ft 286 kts 111°
2026-04-21 17:14 51.98181 -0.36712 8463 ft 288 kts 127°
2026-04-21 17:15 51.96902 -0.34254 8122 ft 285 kts 128°
2026-04-21 17:15 51.95609 -0.31858 7803 ft 283 kts 129°
2026-04-21 17:15 51.94316 -0.29462 7542 ft 281 kts 129°
2026-04-21 17:15 51.93036 -0.27070 7180 ft 281 kts 128°
2026-04-21 17:16 51.91763 -0.24681 6976 ft 276 kts 128°
2026-04-21 17:16 51.90518 -0.22328 6583 ft 276 kts 128°
2026-04-21 17:16 51.89277 -0.19975 6279 ft 274 kts 128°
2026-04-21 17:16 51.88039 -0.17625 5970 ft 274 kts 127°
2026-04-21 17:17 51.86818 -0.15304 5741 ft 270 kts 127°
2026-04-21 17:17 51.85598 -0.12986 5413 ft 271 kts 128°
2026-04-21 17:17 51.84375 -0.10668 5108 ft 269 kts 127°
2026-04-21 17:17 51.83180 -0.08400 4890 ft 261 kts 127°
2026-04-21 17:18 51.82019 -0.06202 4611 ft 251 kts 127°
2026-04-21 17:18 51.80916 -0.04118 4344 ft 238 kts 126°
2026-04-21 17:18 51.79869 -0.02146 4082 ft 223 kts 126°
2026-04-21 17:18 51.78893 -0.00301 3820 ft 210 kts 126°
2026-04-21 17:19 51.77966 0.01447 3575 ft 200 kts 126°
2026-04-21 17:19 51.77199 0.03220 3420 ft 183 kts 102°
2026-04-21 17:19 51.77338 0.05109 3363 ft 173 kts 58°
2026-04-21 17:19 51.77987 0.06775 3149 ft 178 kts 59°
2026-04-21 17:20 51.78706 0.08377 2903 ft 175 kts 51°
2026-04-21 17:20 51.79497 0.09835 2677 ft 170 kts 46°
2026-04-21 17:20 51.80327 0.11164 2452 ft 168 kts 44°
2026-04-21 17:20 51.81177 0.12454 2207 ft 167 kts 43°
2026-04-21 17:21 51.81995 0.13684 2006 ft 159 kts 43°
2026-04-21 17:21 51.82787 0.14881 1785 ft 152 kts 43°
2026-04-21 17:21 51.83539 0.16014 1606 ft 140 kts 43°
2026-04-21 17:21 51.84224 0.17041 1378 ft 128 kts 44°
2026-04-21 17:22 51.84888 0.18047 1157 ft 136 kts 45°
2026-04-21 17:22 51.85589 0.19096 946 ft 137 kts 44°
2026-04-21 17:22 51.86267 0.20106 743 ft 129 kts 46°
2026-04-21 17:22 51.86917 0.21102 579 ft 131 kts 45°
2026-04-21 17:23 51.87600 0.22124 410 ft 134 kts 45°
2026-04-21 17:23 51.88254 0.23111 334 ft 116 kts 43°
2026-04-21 17:23 51.88739 0.23838 337 ft 73 kts 43°
2026-04-21 17:23 51.88987 0.24216 344 ft 24 kts 46°
2026-04-21 17:24 51.89068 0.24408 344 ft 24 kts 64°
2026-04-21 17:24 51.89130 0.24655 347 ft 21 kts 68°
2026-04-21 17:24 51.89168 0.24822 346 ft 12 kts 88°
2026-04-21 17:24 51.89152 0.24924 349 ft 8 kts 81°
2026-04-21 17:25 51.89195 0.25008 348 ft 12 kts 45°
2026-04-21 17:25 51.89239 0.25116 354 ft 12 kts 69°
2026-04-21 17:25 51.89216 0.25209 352 ft 0 kts 131°
2026-04-21 17:26 51.89200 0.25239 351 ft 9 kts 131°
2026-04-21 17:26 51.89148 0.25329 358 ft 12 kts 133°
2026-04-21 17:27 51.89093 0.25425 352 ft 12 kts 133°
2026-04-21 17:27 51.89038 0.25519 348 ft 11 kts 133°
2026-04-21 17:27 51.88990 0.25615 349 ft 11 kts 106°
2026-04-21 17:27 51.89025 0.25695 351 ft 5 kts 42°
2026-04-21 17:28 51.89028 0.25699 352 ft 0 kts 42°
2026-04-21 17:53 51.89028 0.25698 348 ft 0 kts 42°
2026-04-21 17:55 51.89027 0.25698 348 ft 0 kts 42°